Le nostre stazioni meteo in Italia

Pubblicità
Il mio iltempo24.it
Capo Frasca, Italia (16539): Temperatura & dewpoint: 17.01.2017 19:00:00 - 23.01.2017 19:00:00 (CET)Capo Frasca, Italia (16539): velocità del vento: 17.01.2017 19:00:00 - 23.01.2017 19:00:00 (CET)Capo Frasca, Italia (16539): direzione del vento: 17.01.2017 19:00:00 - 23.01.2017 19:00:00 (CET)Capo Frasca, Italia (16539): reduced air pressure: 17.01.2017 19:00:00 - 23.01.2017 19:00:00 (CET)Capo Frasca, Italia (16539): visibility: 17.01.2017 19:00:00 - 23.01.2017 19:00:00 (CET)
Data & Tempo tt [°C] td [°C] ff [km/h] ff [kn] dd ppp [hPa] vv [km]
23.01.2017 19:00:00 10,4 10,1 9 5 NE 1011,3 20
23.01.2017 18:00:00 - - - - - - -
23.01.2017 17:00:00 - - - - - - -
23.01.2017 16:00:00 13,0 10,5 11 6 E 1010,6 20
23.01.2017 15:00:00 - - - - - - -
23.01.2017 14:00:00 - - - - - - -
23.01.2017 13:00:00 13,4 11,3 11 6 E 1011,9 20
23.01.2017 12:00:00 - - - - - - -
23.01.2017 11:00:00 - - - - - - -
23.01.2017 10:00:00 9,8 9,0 16 9 E 1012,5 20
23.01.2017 09:00:00 - - - - - - -
23.01.2017 08:00:00 - - - - - - -
23.01.2017 07:00:00 7,4 6,7 13 7 E 1012,0 20
23.01.2017 06:00:00 - - - - - - -
23.01.2017 05:00:00 - - - - - - -
23.01.2017 04:00:00 - - - - - - -
23.01.2017 03:00:00 - - - - - - -
23.01.2017 02:00:00 - - - - - - -
23.01.2017 01:00:00 - - - - - - -
23.01.2017 00:00:00 - - - - - - -
22.01.2017 23:00:00 - - - - - - -
22.01.2017 22:00:00 - - - - - - -
22.01.2017 21:00:00 - - - - - - -
22.01.2017 20:00:00 - - - - - - -
22.01.2017 19:00:00 12,0 11,4 15 8 ESE 1012,5 20
22.01.2017 18:00:00 - - - - - - -
22.01.2017 17:00:00 - - - - - - -
22.01.2017 16:00:00 - - - - - - -
22.01.2017 15:00:00 - - - - - - -
22.01.2017 14:00:00 - - - - - - -
22.01.2017 13:00:00 14,2 11,5 26 14 ESE 1012,8 15
22.01.2017 12:00:00 - - - - - - -
22.01.2017 11:00:00 - - - - - - -
22.01.2017 10:00:00 - - - - - - -
22.01.2017 09:00:00 - - - - - - -
22.01.2017 08:00:00 - - - - - - -
22.01.2017 07:00:00 9,4 8,3 24 13 E 1011,9 20
22.01.2017 06:00:00 - - - - - - -
22.01.2017 05:00:00 - - - - - - -
22.01.2017 04:00:00 - - - - - - -
22.01.2017 03:00:00 - - - - - - -
22.01.2017 02:00:00 - - - - - - -
22.01.2017 01:00:00 - - - - - - -
22.01.2017 00:00:00 - - - - - - -
21.01.2017 23:00:00 - - - - - - -
21.01.2017 22:00:00 - - - - - - -
21.01.2017 21:00:00 - - - - - - -
21.01.2017 20:00:00 - - - - - - -
21.01.2017 19:00:00 9,4 8,2 5 3 ENE 1010,5 20
21.01.2017 18:00:00 - - - - - - -
21.01.2017 17:00:00 - - - - - - -
21.01.2017 16:00:00 - - - - - - -
21.01.2017 15:00:00 - - - - - - -
21.01.2017 14:00:00 - - - - - - -
21.01.2017 13:00:00 10,6 10,3 28 15 SE 1011,4 3,0
21.01.2017 12:00:00 - - - - - - -
21.01.2017 11:00:00 - - - - - - -
21.01.2017 10:00:00 - - - - - - -
21.01.2017 09:00:00 - - - - - - -
21.01.2017 08:00:00 - - - - - - -
21.01.2017 07:00:00 12,2 11,1 37 20 E 1014,4 20
21.01.2017 06:00:00 - - - - - - -
21.01.2017 05:00:00 - - - - - - -
21.01.2017 04:00:00 - - - - - - -
21.01.2017 03:00:00 - - - - - - -
21.01.2017 02:00:00 - - - - - - -
21.01.2017 01:00:00 - - - - - - -
21.01.2017 00:00:00 - - - - - - -
20.01.2017 23:00:00 - - - - - - -
20.01.2017 22:00:00 - - - - - - -
20.01.2017 21:00:00 - - - - - - -
20.01.2017 20:00:00 - - - - - - -
20.01.2017 19:00:00 10,2 9,0 28 15 E 1020,0 20
20.01.2017 18:00:00 - - - - - - -
20.01.2017 17:00:00 - - - - - - -
20.01.2017 16:00:00 - - - - - - -
20.01.2017 15:00:00 - - - - - - -
20.01.2017 14:00:00 - - - - - - -
20.01.2017 13:00:00 12,0 9,6 28 15 E 1022,0 25
20.01.2017 12:00:00 - - - - - - -
20.01.2017 11:00:00 - - - - - - -
20.01.2017 10:00:00 - - - - - - -
20.01.2017 09:00:00 - - - - - - -
20.01.2017 08:00:00 - - - - - - -
20.01.2017 07:00:00 5,0 4,3 13 7 E 1022,4 20
20.01.2017 06:00:00 - - - - - - -
20.01.2017 05:00:00 - - - - - - -
20.01.2017 04:00:00 - - - - - - -
20.01.2017 03:00:00 - - - - - - -
20.01.2017 02:00:00 - - - - - - -
20.01.2017 01:00:00 - - - - - - -
20.01.2017 00:00:00 - - - - - - -
19.01.2017 23:00:00 - - - - - - -
19.01.2017 22:00:00 - - - - - - -
19.01.2017 21:00:00 - - - - - - -
19.01.2017 20:00:00 - - - - - - -
19.01.2017 19:00:00 7,6 7,2 16 9 ENE 1021,6 20
19.01.2017 18:00:00 - - - - - - -
19.01.2017 17:00:00 - - - - - - -
19.01.2017 16:00:00 11,4 7,1 9 5 ENE 1020,5 25
19.01.2017 15:00:00 - - - - - - -
19.01.2017 14:00:00 - - - - - - -
19.01.2017 13:00:00 10,0 7,4 11 6 ENE 1021,1 20
19.01.2017 12:00:00 - - - - - - -
19.01.2017 11:00:00 - - - - - - -
19.01.2017 10:00:00 7,0 5,0 11 6 E 1020,7 20
19.01.2017 09:00:00 - - - - - - -
19.01.2017 08:00:00 - - - - - - -
19.01.2017 07:00:00 2,0 1,7 13 7 E 1019,4 20
19.01.2017 06:00:00 - - - - - - -
19.01.2017 05:00:00 - - - - - - -
19.01.2017 04:00:00 - - - - - - -
19.01.2017 03:00:00 - - - - - - -
19.01.2017 02:00:00 - - - - - - -
19.01.2017 01:00:00 - - - - - - -
19.01.2017 00:00:00 - - - - - - -
18.01.2017 23:00:00 - - - - - - -
18.01.2017 22:00:00 - - - - - - -
18.01.2017 21:00:00 - - - - - - -
18.01.2017 20:00:00 - - - - - - -
18.01.2017 19:00:00 7,0 5,5 28 15 NNE 1013,9 20
18.01.2017 18:00:00 - - - - - - -
18.01.2017 17:00:00 - - - - - - -
18.01.2017 16:00:00 8,2 5,1 24 13 NE 1012,4 25
18.01.2017 15:00:00 - - - - - - -
18.01.2017 14:00:00 - - - - - - -
18.01.2017 13:00:00 8,0 6,5 22 12 NNE 1011,5 25
18.01.2017 12:00:00 - - - - - - -
18.01.2017 11:00:00 - - - - - - -
18.01.2017 10:00:00 7,0 5,0 28 15 NNE 1010,6 25
18.01.2017 09:00:00 - - - - - - -
18.01.2017 08:00:00 - - - - - - -
18.01.2017 07:00:00 6,4 4,6 28 15 N 1008,4 20
18.01.2017 06:00:00 - - - - - - -
18.01.2017 05:00:00 - - - - - - -
18.01.2017 04:00:00 - - - - - - -
18.01.2017 03:00:00 - - - - - - -
18.01.2017 02:00:00 - - - - - - -
18.01.2017 01:00:00 - - - - - - -
18.01.2017 00:00:00 - - - - - - -
17.01.2017 23:00:00 - - - - - - -
17.01.2017 22:00:00 - - - - - - -
17.01.2017 21:00:00 - - - - - - -
17.01.2017 20:00:00 - - - - - - -
17.01.2017 19:00:00 5,8 3,8 29 16 N 1005,7 20

tt = Temperatura
td = dewpoint
ff = velocità del vento
dd = direzione del vento
ppp = reduced air pressure
vv = visibility

Stazioni seguenti

WeatherPro
AMSI
MeteoEarth